星链-3547 (STARLINK-3547 )

导读

STARLINK-3547是美国SpaceX公司星链(Starlink)星座的组网卫星,于北京时间2022年3月3日发射入轨。星链星座旨在为全球提供低延迟、高速率的宽带互联网服务,尤其覆盖偏远等网络基础设施薄弱区域。作为低轨通信卫星,该卫星运行在近地轨道,是SpaceX大规模星座部署中的一员,支撑星链全球互联的服务能力,助力星座组网完善全球覆盖。

Basic Information
目录编号:
51889
目录名称:
STARLINK-3547
国际标识:
2022-022AP
轨道中心:
EARTH
卫星名称:
星链-3547
卫星全名:
星链-3547 (STARLINK-3547 )
卫星状态:
在轨 (已飞行1646 天)
发射日期:
2022-03-03 UTC
国别 :
美国 (US)
星等 :
--
Orbit Information
数据来源 国际轨道数据
星历时间: 2026-09-03T15:45:26+0800
20小时前
查看轨道信息
半长轴: 6840.881km
偏心率: 0.0001258
轨道倾角: 53.159°
近地点辐角 82.031°
升交点赤经 268.360°
平近点角 278.084°
近地点: 461.883km
远地点: 463.605km
周期: 93.849分钟
每日圈数: 15.343865
Detailed Information
固有亮度:
5
最大亮度:
2.5
卫星平台:
Starlink v1.5
覆盖范围:
全球
运营商:
太空探索技术公司
运营商所在国:
美国
制造商(研发单位):
太空探索技术公司
制造商所在国:
美国
使用方式:
暂无
Satellite Introduction
星链(Starlink)计划是由太空探索技术公司(SpaceX)提出的一个巨型低轨卫星互联网星座项目,计划在2019年至2024年间在太空搭建由约1.2万颗卫星组成的“星链”网络,其中1584颗将部署在地球上空550千米处的近地轨道,并从2020年开始工作。该卫星仍在工作。
2D Orbit Map
3D Orbit Map
Orbit Altitude Analysis Chart
Orbit Inclination Analysis Chart
Orbit Comprehensive Analysis Chart
View Comprehensive Chart
Conjunction Data List
Event ID Objects TCA Miss Dist (km) Collision Risk Probability Collision Risk Index (CRI) Action
CDM_260905-040105-188906-583821
2026-09-05T
04:01:22+0000
0.667 km
远距离
6.168723E-5 中风险 0.71
CDM_260904-192505-188906-583821
2026-09-04T
19:25:31+0000
1.040 km
极远距离
1.437298E-5 中风险 0.58
CDM_260903-204305-188906-615622
2026-09-03T
20:43:02+0000
1.033 km
极远距离
1.120913E-5 中风险 0.56
CDM_260903-164805-188906-615623
2026-09-03T
16:48:34+0000
1.037 km
极远距离
1.10298E-5 中风险 0.56
CDM_260904-175105-188906-583821
2026-09-04T
17:51:43+0000
2.207 km
极远距离
1.469469E-6 低风险 0.38
CDM_260905-042405-188905-324721
2026-09-05T
04:24:24+0000
2.917 km
极远距离
1.221363E-6 低风险 0.37
CDM_260905-053505-188906-583821
2026-09-05T
05:35:09+0000
2.806 km
极远距离
9.75337E-7 极低风险 0.35